EN

Hourly Weather Oboz

Today, 1 October, Thursday

Time Temperature Precipitation Wind Pressure Humidity
00:00 +15°C° 0 mm 5 mps 756 mmHg 50%
01:00 +14°C° 0 mm 5 mps 756 mmHg 50%
02:00 +14°C° 0 mm 5 mps 756 mmHg 51%
03:00 +13°C° 0 mm 5 mps 757 mmHg 51%
04:00 +13°C° 0 mm 5 mps 757 mmHg 49%
05:00 +13°C° 0 mm 5 mps 757 mmHg 48%
06:00 +12°C° 0 mm 5 mps 757 mmHg 46%
07:00 +13°C° 0 mm 6 mps 757 mmHg 43%
08:00 +14°C° 0 mm 6 mps 757 mmHg 40%
09:00 +15°C° 0 mm 7 mps 757 mmHg 37%
10:00 +16°C° 0 mm 7 mps 757 mmHg 34%
11:00 +18°C° 0 mm 7 mps 757 mmHg 31%
12:00 +20°C° 0 mm 7 mps 757 mmHg 28%
13:00 +21°C° 0 mm 7 mps 757 mmHg 28%
14:00 +21°C° 0 mm 7 mps 757 mmHg 28%
15:00 +21°C° 0 mm 7 mps 757 mmHg 29%
16:00 +20°C° 0 mm 6 mps 756 mmHg 32%
17:00 +19°C° 0 mm 5 mps 756 mmHg 35%
18:00 +17°C° 0 mm 4 mps 756 mmHg 38%
19:00 +17°C° 0 mm 4 mps 756 mmHg 38%
20:00 +16°C° 0 mm 5 mps 757 mmHg 38%
21:00 +15°C° 0 mm 5 mps 757 mmHg 38%
22:00 +15°C° 0 mm 5 mps 757 mmHg 39%
23:00 +14°C° 0 mm 5 mps 757 mmHg 40%

Tomorrow, 2 October, Friday

Time Temperature Precipitation Wind Pressure Humidity
00:00 +14°C° 0 mm 4 mps 757 mmHg 42%
01:00 +13°C° 0 mm 4 mps 757 mmHg 44%
02:00 +13°C° 0 mm 4 mps 757 mmHg 46%
03:00 +13°C° 0 mm 4 mps 757 mmHg 48%
04:00 +12°C° 0 mm 4 mps 757 mmHg 52%
05:00 +12°C° 0 mm 4 mps 757 mmHg 56%
06:00 +12°C° 0 mm 4 mps 757 mmHg 60%
07:00 +13°C° 0 mm 4 mps 757 mmHg 59%
08:00 +14°C° 0 mm 5 mps 758 mmHg 58%
09:00 +15°C° 0 mm 5 mps 758 mmHg 57%
10:00 +16°C° 0 mm 6 mps 757 mmHg 52%
11:00 +17°C° 0 mm 6 mps 757 mmHg 48%
12:00 +20°C° 0 mm 6 mps 757 mmHg 43%
13:00 +20°C° 0 mm 6 mps 757 mmHg 43%
14:00 +20°C° 0 mm 6 mps 757 mmHg 42%
15:00 +20°C° 0 mm 6 mps 757 mmHg 41%
16:00 +19°C° 0 mm 5 mps 757 mmHg 44%
17:00 +18°C° 0 mm 4 mps 757 mmHg 47%
18:00 +17°C° 0 mm 4 mps 757 mmHg 50%
19:00 +17°C° 0 mm 4 mps 757 mmHg 51%
20:00 +15°C° 0 mm 4 mps 757 mmHg 52%
21:00 +15°C° 0 mm 4 mps 757 mmHg 53%
22:00 +14°C° 0 mm 4 mps 757 mmHg 54%
23:00 +14°C° 0 mm 4 mps 758 mmHg 54%

Day after tomorrow, 3 October, Saturday

Time Temperature Precipitation Wind Pressure Humidity
00:00 +14°C° 0 mm 4 mps 758 mmHg 54%
01:00 +13°C° 0 mm 4 mps 758 mmHg 55%
02:00 +13°C° 0 mm 4 mps 758 mmHg 56%
03:00 +13°C° 0 mm 4 mps 758 mmHg 56%
04:00 +12°C° 0 mm 4 mps 758 mmHg 58%
05:00 +12°C° 0 mm 4 mps 758 mmHg 59%
06:00 +12°C° 0 mm 3 mps 758 mmHg 59%
07:00 +13°C° 0 mm 4 mps 758 mmHg 57%
08:00 +13°C° 0 mm 4 mps 758 mmHg 55%
09:00 +14°C° 0 mm 4 mps 758 mmHg 52%
10:00 +15°C° 0 mm 4 mps 758 mmHg 49%
11:00 +18°C° 0 mm 4 mps 758 mmHg 45%
12:00 +19°C° 0 mm 4 mps 758 mmHg 41%
13:00 +20°C° 0 mm 4 mps 758 mmHg 38%
14:00 +20°C° 0 mm 4 mps 758 mmHg 36%
15:00 +21°C° 0 mm 5 mps 758 mmHg 34%
16:00 +19°C° 0 mm 4 mps 758 mmHg 38%
17:00 +18°C° 0 mm 4 mps 758 mmHg 42%
18:00 +17°C° 0 mm 3 mps 758 mmHg 46%
19:00 +16°C° 0 mm 3 mps 758 mmHg 47%
20:00 +14°C° 0 mm 3 mps 758 mmHg 48%
21:00 +14°C° 0 mm 3 mps 758 mmHg 49%
22:00 +14°C° 0 mm 3 mps 758 mmHg 49%
23:00 +13°C° 0 mm 3 mps 758 mmHg 49%

4 October, Sunday

Time Temperature Precipitation Wind Pressure Humidity
00:00 +13°C° 0 mm 3 mps 758 mmHg 50%
01:00 +13°C° 0 mm 3 mps 758 mmHg 50%
02:00 +13°C° 0 mm 3 mps 758 mmHg 51%
03:00 +12°C° 0 mm 3 mps 758 mmHg 52%
04:00 +12°C° 0 mm 3 mps 758 mmHg 52%
05:00 +11°C° 0 mm 3 mps 758 mmHg 53%
06:00 +11°C° 0 mm 3 mps 758 mmHg 53%
07:00 +12°C° 0 mm 3 mps 758 mmHg 50%
08:00 +13°C° 0 mm 3 mps 758 mmHg 47%
09:00 +14°C° 0 mm 4 mps 758 mmHg 44%
10:00 +15°C° 0 mm 4 mps 758 mmHg 41%
11:00 +17°C° 0 mm 3 mps 758 mmHg 38%
12:00 +18°C° 0 mm 3 mps 758 mmHg 35%
13:00 +18°C° 0 mm 3 mps 758 mmHg 33%
14:00 +19°C° 0 mm 4 mps 758 mmHg 32%
15:00 +19°C° 0 mm 4 mps 758 mmHg 30%
16:00 +18°C° 0 mm 3 mps 758 mmHg 33%
17:00 +17°C° 0 mm 3 mps 758 mmHg 36%
18:00 +16°C° 0 mm 3 mps 758 mmHg 39%
19:00 +16°C° 0 mm 2 mps 758 mmHg 40%
20:00 +15°C° 0 mm 2 mps 758 mmHg 40%
21:00 +15°C° 0 mm 2 mps 758 mmHg 41%
22:00 +15°C° 0 mm 2 mps 758 mmHg 41%
23:00 +14°C° 0 mm 2 mps 758 mmHg 40%

5 October, Monday

Time Temperature Precipitation Wind Pressure Humidity
00:00 +14°C° 0 mm 2 mps 758 mmHg 40%
01:00 +14°C° 0 mm 2 mps 758 mmHg 43%
02:00 +13°C° 0 mm 2 mps 758 mmHg 45%
03:00 +12°C° 0 mm 2 mps 758 mmHg 47%
04:00 +12°C° 0 mm 1 mps 758 mmHg 51%
05:00 +11°C° 0 mm 1 mps 758 mmHg 56%
06:00 +10°C° 0 mm 1 mps 758 mmHg 60%
07:00 +12°C° 0 mm 1 mps 758 mmHg 56%
08:00 +13°C° 0 mm 1 mps 758 mmHg 51%
09:00 +14°C° 0 mm 1 mps 758 mmHg 47%
10:00 +16°C° 0 mm 2 mps 758 mmHg 42%
11:00 +17°C° 0 mm 3 mps 758 mmHg 37%
12:00 +18°C° 0 mm 4 mps 758 mmHg 32%
13:00 +19°C° 0 mm 4 mps 758 mmHg 31%
14:00 +19°C° 0 mm 4 mps 758 mmHg 29%
15:00 +20°C° 0 mm 4 mps 757 mmHg 28%
16:00 +18°C° 0 mm 4 mps 757 mmHg 31%
17:00 +17°C° 0 mm 3 mps 757 mmHg 33%
18:00 +16°C° 0 mm 3 mps 757 mmHg 36%
19:00 +14°C° 0 mm 3 mps 757 mmHg 36%
20:00 +14°C° 0 mm 3 mps 757 mmHg 36%
21:00 +14°C° 0 mm 4 mps 757 mmHg 37%
22:00 +13°C° 0 mm 4 mps 757 mmHg 40%
23:00 +13°C° 0 mm 4 mps 757 mmHg 43%

6 October, Tuesday

Time Temperature Precipitation Wind Pressure Humidity
00:00 +13°C° 0 mm 4 mps 757 mmHg 46%
01:00 +13°C° 0 mm 4 mps 757 mmHg 48%
02:00 +13°C° 0 mm 3 mps 757 mmHg 50%
03:00 +13°C° 0 mm 3 mps 757 mmHg 53%
04:00 +12°C° 0 mm 4 mps 757 mmHg 51%
05:00 +12°C° 0 mm 4 mps 756 mmHg 50%
06:00 +12°C° 0 mm 4 mps 756 mmHg 49%
07:00 +13°C° 0 mm 5 mps 756 mmHg 44%
08:00 +13°C° 0 mm 5 mps 756 mmHg 38%
09:00 +14°C° 0 mm 5 mps 756 mmHg 33%
10:00 +16°C° 0 mm 6 mps 756 mmHg 30%
11:00 +17°C° 0 mm 6 mps 756 mmHg 28%
12:00 +20°C° 0 mm 6 mps 756 mmHg 25%
13:00 +20°C° 0 mm 6 mps 756 mmHg 27%
14:00 +20°C° 0 mm 6 mps 755 mmHg 28%
15:00 +20°C° 0 mm 6 mps 755 mmHg 29%
16:00 +19°C° 0 mm 6 mps 755 mmHg 31%
17:00 +17°C° 0 mm 5 mps 755 mmHg 33%
18:00 +16°C° 0 mm 5 mps 754 mmHg 35%
19:00 +16°C° 0 mm 5 mps 754 mmHg 34%
20:00 +16°C° 0 mm 5 mps 754 mmHg 34%
21:00 +15°C° 0 mm 5 mps 754 mmHg 33%
22:00 +15°C° 0 mm 5 mps 754 mmHg 32%
23:00 +15°C° 0 mm 5 mps 754 mmHg 31%
Show more

We Need Your Consent

Meteoprog and our Service Providers may store and access personal data such as cookies, device identifiers or other similar technologies on your device and process such data to personalise content and ads, as well as provide social media features and to analyse the traffic.

  • Store and/or access information on your device

    Cookies, device identifiers or other information can be stored or accessed on your device for the purposes indicated above.

  • Personalised ads and content, ad and content measurement, audience insights, and products development

    Ads and content can be personalised based on a profile. More data can be added to better personalise ads and content. Ad and content performance can be measured. Insights about the audience who saw the ads and content can be derived. Such data can be used to develop or improve user’s experience, systems and software.

By clicking ‘I Agree’ you will allow the use of indicated cookies, device identifiers, web beacons or other similar technologies. Your settings can be changed in the browser on your device.

For certain purposes, legitimate interests may be relied on, rather than consent. You can read more about this in our Privacy and Cookie Policy.